Previous Day | Next Day | Return to data request page.
                  HOURLY WEATHER FOR ST. LOUIS
                         TUE FEB 11 2014
                              (CST)

        SKY/WX    TMP DP  RH WIND       PRES   REMARKS
1255 AM PTCLDY     5  -6  60 N3        30.48S                  
 155 AM PTCLDY     3  -7  63 N5        30.49R WCI  -6          
 255 AM PTCLDY     3  -8  60 N3        30.50R                  
 355 AM PTCLDY     0  -9  65 N5        30.50S WCI -10          
 455 AM PTCLDY     2  -8  63 N7        30.51R WCI -11          
 555 AM PTCLDY     1  -8  66 N3        30.51S                  6HR MIN TEMP:   0; 6HR MAX TEMP:   7;                  
 655 AM MOCLDY     0  -9  65 N3        30.52R                  
 755 AM MOSUNNY    1  -8  66 N5        30.54R WCI  -9          
 855 AM MOSUNNY    3  -6  66 E5        30.53F WCI  -6          
 955 AM MOSUNNY    8  -5  55 CALM      30.53S                  
1055 AM MOSUNNY   11  -4  51 E5        30.53S WCI   3          
1155 AM SUNNY     14  -3  47 CALM      30.51F                  6HR MIN TEMP:  -1; 6HR MAX TEMP:  14;                  
1255 PM SUNNY     16  -4  41 CALM      30.48F                  
 155 PM SUNNY     20  -3  36 CALM      30.44F                  
 255 PM SUNNY     20  -2  38 CALM      30.42F                  
 355 PM SUNNY     19  -1  41 E5        30.41F WCI  12          
 455 PM CLEAR     18  -1  43 E6        30.40F WCI  10          
 555 PM PTCLDY    16   0  49 E6        30.39F WCI   7          6HR MIN TEMP:  14; 6HR MAX TEMP:  20;                  
 655 PM PTCLDY    15   0  51 E7        30.38F WCI   5          
 755 PM PTCLDY    14   0  53 E7        30.39R WCI   4          
 855 PM CLEAR     13   0  56 E5        30.38F WCI   5          
 955 PM CLEAR     13   0  56 SE6       30.38S WCI   4          
1055 PM PTCLDY    12   0  58 CALM      30.36F                  
1155 PM CLEAR     10  -1  61 E7        30.35F WCI  -1          6HR MIN TEMP:   9; 6HR MAX TEMP:  17;